Location: Bruchsal
(49.1250°N, 8.5844°E)
Time: 18:21:02
(UTC+02:00)

ISS - Pass Details

Date: 23 April 2026
Orbit: 414 x 424 km, 51.6° (Epoch: 14 May)

Event Time Altitude Azimuth Distance (km) Brightness Sun altitude
Exits shadow 04:44:01 24° 194° (SSW) 914 -2.5 -14.3°
Maximum altitude 04:45:24 35° 147° (SSE) 694 -2.7 -14.1°
Drops below altitude 10° 04:48:31 10° 80° (E) 1,505 0.1 -13.7°
Sets 04:50:44 0° 71° (ENE) 2,375 1.5 -13.4°
